Location: Ar Ranvel
(48.3000°N, 4.8833°W)
Time: 09:43:43
(UTC+00:00)

Cosmos 1503 Rocket - Pass Details

Date: 16 June 2021
Orbit: 752 x 791 km, 74.0° (Epoch: 26 July)

Event Time Altitude Azimuth Distance (km) Brightness Sun altitude
Rises 23:08:26 0° 339° (NNW) 3,299 9.1 -16.5°
Reaches altitude 10° 23:10:52 10° 342° (NNW) 2,368 7.9 -16.6°
Maximum altitude 23:16:13 63° 64° (ENE) 882 4.3 -16.9°
Enters shadow 23:19:18 25° 138° (SE) 1,541 5.1 -17.0°
